[[{"header":{"parameterUnit":"m.s-1","parameterCategory":1,"la1":30.2991,"la2":30.254,"lo1":-89.0895,"lo2":-89.0444,"dy":0.0017,"dx":0.0017,"nx":28,"ny":28,"refTime":"2024-10-01T03:00:00:Z","depth":0,"parameterNumber":2,"parameterNumberName":"U-component_of_WINDS"},"data":[0,0,0,0,0,0,0,0,0,0,0,0,0,0,0,0,0,0,0,0,0,0,0,0,0,0,0,0,0,0,0,0,0,0,0,0,0,0,0,0,0,0,0,0,0,0,0,0,0,0,0,0,0,0,0,0,0,0,0.2859,0.2858,0,0.2826,0.2826,0.2825,0.282,0.282,0.282,0.2821,0.2786,0.2785,0.2784,0,0,0,0,0,0,0,0,0,0,0,0,0,0.2915,0.2914,0.2859,0.2858,0.2858,0.2826,0.2826,0.2825,0.282,0.282,0.282,0.2821,0.2786,0.2785,0.2784,0,0,0,0,0,0,0,0,0,0,0,0,0,0.2887,0.2913,0.2859,0.2851,0.285,0.2826,0.2826,0.2825,0.282,0.282,0.282,0.2821,0.2787,0.2785,0.2783,0.2764,0,0,0.2778,0.2777,0,0,0,0,0,0,0,0,0.2889,0.2885,0.2853,0.2852,0.2851,0.2828,0.2833,0.2805,0.282,0.2831,0.2821,0.2821,0.2799,0.2797,0.279,0.2763,0.2761,0.2778,0.2777,0.2776,0.2775,0,0,0,0,0,0,0,0.2891,0.2886,0.2846,0.2852,0.2851,0.2849,0.2846,0.2828,0.2813,0.283,0.283,0.2826,0.2799,0.2791,0.2789,0.2761,0.2778,0.2776,0.2775,0.2774,0.2716,0.2716,0,0,0,0,0,0,0.2894,0.2888,0.2847,0.2845,0.2871,0.2848,0.2844,0.2834,0.2814,0.2811,0.2826,0.2826,0.2794,0.2791,0.2787,0.2763,0.2776,0.2774,0.2773,0.2717,0.2716,0.2715,0,0,0,0,0,0,0.2895,0.289,0.2848,0.2866,0.2861,0.2846,0.2836,0.2834,0.2826,0.281,0.2807,0.2821,0.2794,0.279,0.277,0.2762,0.2773,0.2772,0.2717,0.2716,0.2716,0.2715,0,0,0,0,0,0,0.2897,0.2891,0.2884,0.2866,0.286,0.2832,0.2835,0.2833,0.2823,0.2823,0.2805,0.2802,0.2794,0.2773,0.2768,0.276,0.2771,0.2718,0.2717,0.2716,0.2716,0.2715,0.2714,0,0,0,0,0,0.2899,0.2885,0.2883,0.2879,0.2851,0.2831,0.2828,0.2819,0.2823,0.2815,0.2805,0.2803,0.2764,0.2771,0.2766,0.2757,0.2718,0.2717,0.2716,0.2717,0.2715,0.2714,0,0,0,0,0,0,0.2901,0.2882,0.2881,0.286,0.2848,0.283,0.2821,0.2818,0.2804,0.2804,0.2794,0.279,0.277,0.2762,0.277,0.2737,0.2741,0.2739,0.2743,0.2742,0.2741,0.2743,0.2769,0,0,0,0,0,0.29,0.2886,0.287,0.2853,0.2847,0.2835,0.2826,0.2821,0.2807,0.2801,0.279,0.2776,0.2761,0.2751,0.2736,0.2715,0.2711,0.2706,0.2705,0.2704,0.2702,0.269,0.2688,0.2712,0.2712,0.2712,0,0,0.2895,0.2883,0.2875,0.2854,0.2843,0.2828,0.283,0.2815,0.2804,0.2799,0.278,0.2771,0.2754,0.2734,0.2724,0.2726,0.2695,0.2703,0.2702,0.2701,0.2689,0.2687,0.2685,0.2711,0.2711,0.2711,0,0,0.2881,0.2871,0.2856,0.2845,0.2829,0.2821,0.2818,0.2801,0.2795,0.2775,0.2771,0.2758,0.2732,0.2721,0.2711,0.2693,0.269,0.2688,0.2682,0.267,0.2668,0.2666,0.2659,0.2657,0.2686,0.2686,0.2686,0,0.2878,0.2856,0.2848,0.2833,0.2824,0.2819,0.2804,0.2794,0.2773,0.2767,0.2769,0.2736,0.2725,0.2702,0.2697,0.269,0.2685,0.269,0.2669,0.2667,0.2666,0.2659,0.2656,0.2686,0.2686,0.2686,0.2686,0,0.2853,0.2838,0.2828,0.2809,0.2798,0.2783,0.2773,0.2763,0.2759,0.275,0.273,0.2717,0.2699,0.2693,0.2689,0.2669,0.2671,0.2671,0.2675,0.2663,0.2657,0.2654,0.2686,0.2686,0.2686,0.2686,0,0,0.2838,0.2816,0.2812,0.2803,0.2786,0.2774,0.2758,0.2741,0.2733,0.2719,0.2706,0.2684,0.2684,0.2674,0.2668,0.2658,0.2644,0.266,0.2659,0.2657,0.2621,0.262,0.2617,0.2642,0.2641,0.2641,0.2622,0,0.2821,0.2794,0.2786,0.2763,0.2749,0.2744,0.2731,0.2718,0.271,0.2697,0.2688,0.2672,0.2674,0.2668,0.2658,0.2648,0.2636,0.2649,0.2629,0.2628,0.2633,0.2614,0.2613,0.2596,0.2619,0.2619,0.2619,0,0.2798,0.2784,0.2759,0.2743,0.2737,0.2725,0.2709,0.2696,0.2682,0.2677,0.2665,0.266,0.2644,0.2649,0.2626,0.2635,0.2626,0.262,0.2619,0.2616,0.2622,0.261,0.259,0.2588,0.2615,0.2615,0.2615,0,0.2789,0.2764,0.2746,0.2739,0.272,0.2712,0.2703,0.2689,0.268,0.2665,0.2659,0.2643,0.2634,0.2621,0.2612,0.2617,0.259,0.2594,0.2584,0.2585,0.2578,0.2579,0.2556,0.2574,0.2574,0.2574,0.2574,0,0.277,0.2755,0.2742,0.2731,0.2714,0.2706,0.2689,0.268,0.2668,0.2655,0.265,0.2637,0.2627,0.2613,0.2605,0.2587,0.2583,0.2578,0.2576,0.2578,0.2579,0.2572,0.2573,0.2573,0.2573,0.2573,0.2573,0,0.2758,0.2748,0.2728,0.2712,0.2708,0.2696,0.2682,0.2671,0.2663,0.2646,0.2642,0.2629,0.2612,0.2602,0.2581,0.2576,0.2556,0.2555,0.2561,0.256,0.255,0.2551,0.2522,0.2518,0.2539,0.2538,0.2538,0,0.2746,0.2735,0.2717,0.2708,0.27,0.2686,0.2676,0.2667,0.2657,0.264,0.263,0.2614,0.26,0.2573,0.2562,0.2546,0.2544,0.2535,0.2541,0.2544,0.2543,0.2544,0.2543,0.2534,0.2533,0.2533,0.2533,0,0.2727,0.2723,0.2709,0.2694,0.2682,0.2669,0.2657,0.265,0.2638,0.2627,0.261,0.26,0.2578,0.2562,0.2544,0.2535,0.2532,0.2531,0.2528,0.253,0.2534,0.2531,0.2557,0.2532,0.2532,0.2532,0.2532,0.2532,0.2714,0.2704,0.269,0.2675,0.2664,0.2652,0.2641,0.2632,0.2618,0.26,0.2596,0.2578,0.2564,0.254,0.2531,0.2517,0.2518,0.2513,0.2512,0.2511,0.2511,0.2536,0.2514,0.2514,0.2514,0.2514,0.2514,0,0.2694,0.2685,0.2671,0.2654,0.2642,0.2641,0.2626,0.2616,0.2601,0.2588,0.2574,0.2555,0.2539,0.2526,0.2509,0.25,0.2499,0.2496,0.2497,0.2495,0.2511,0.2515,0.2498,0.2498,0.2498,0.2498,0.2498,0.2498,0.2683,0.2665,0.2659,0.2636,0.2626,0.2609,0.2601,0.259,0.258,0.2559,0.2545,0.2537,0.2525,0.2507,0.2492,0.2489,0.2482,0.248,0.2477,0.2492,0.2493,0.2495,0.2499,0.2479,0.2479,0.2462,0.2462,0.2461]},{"header":{"parameterUnit":"m.s-1","parameterCategory":1,"la1":30.2991,"la2":30.254,"lo1":-89.0895,"lo2":-89.0444,"dy":0.0017,"dx":0.0017,"nx":28,"ny":28,"refTime":"2024-10-01T03:00:00:Z","depth":0,"parameterNumber":3,"parameterNumberName":"V-component_of_WINDS"},"data":[0,0,0,0,0,0,0,0,0,0,0,0,0,0,0,0,0,0,0,0,0,0,0,0,0,0,0,0,0,0,0,0,0,0,0,0,0,0,0,0,0,0,0,0,0,0,0,0,0,0,0,0,0,0,0,0,0,0,-3.3135,-3.3136,0,-3.3214,-3.3215,-3.3216,-3.3176,-3.3174,-3.3172,-3.317,-3.3247,-3.3251,-3.3254,0,0,0,0,0,0,0,0,0,0,0,0,0,-3.2945,-3.2949,-3.3135,-3.3136,-3.3137,-3.3214,-3.3215,-3.3216,-3.3176,-3.3174,-3.3172,-3.3169,-3.3245,-3.325,-3.3255,0,0,0,0,0,0,0,0,0,0,0,0,0,-3.3026,-3.295,-3.3134,-3.3126,-3.3126,-3.3214,-3.3215,-3.3216,-3.3177,-3.3174,-3.3171,-3.3168,-3.3244,-3.325,-3.3255,-3.3354,0,0,-3.3274,-3.3276,0,0,0,0,0,0,0,0,-3.3021,-3.3033,-3.3127,-3.3127,-3.3127,-3.3182,-3.3176,-3.3262,-3.3178,-3.3158,-3.317,-3.3166,-3.3227,-3.3234,-3.3256,-3.3357,-3.3361,-3.3274,-3.3278,-3.328,-3.3282,0,0,0,0,0,0,0,-3.3016,-3.3029,-3.3166,-3.3128,-3.3128,-3.3117,-3.3125,-3.3192,-3.3209,-3.3159,-3.3157,-3.3167,-3.3227,-3.325,-3.3257,-3.3362,-3.3274,-3.3279,-3.3283,-3.3285,-3.3547,-3.3551,0,0,0,0,0,0,-3.3011,-3.3025,-3.3163,-3.3168,-3.3066,-3.3123,-3.3132,-3.3168,-3.3208,-3.3211,-3.3169,-3.3165,-3.3242,-3.3251,-3.326,-3.3378,-3.328,-3.3286,-3.3289,-3.3544,-3.3548,-3.3552,0,0,0,0,0,0,-3.3007,-3.3024,-3.316,-3.3096,-3.3112,-3.313,-3.317,-3.3171,-3.3194,-3.3216,-3.3218,-3.319,-3.324,-3.3252,-3.3331,-3.338,-3.3288,-3.3294,-3.354,-3.3545,-3.355,-3.3615,0,0,0,0,0,0,-3.3002,-3.3023,-3.3061,-3.3097,-3.3116,-3.3231,-3.3173,-3.3175,-3.3205,-3.32,-3.3236,-3.3239,-3.3238,-3.3322,-3.3337,-3.3387,-3.3298,-3.3536,-3.3542,-3.3548,-3.3608,-3.3621,-3.3633,0,0,0,0,0,-3.2995,-3.3075,-3.3064,-3.308,-3.3165,-3.3234,-3.3245,-3.3244,-3.3209,-3.3247,-3.3261,-3.3238,-3.3372,-3.3331,-3.3347,-3.3399,-3.3533,-3.354,-3.3548,-3.3603,-3.3619,-3.3632,0,0,0,0,0,0,-3.3043,-3.308,-3.3067,-3.3161,-3.3195,-3.3228,-3.3276,-3.3261,-3.3304,-3.3297,-3.3292,-3.33,-3.3383,-3.3398,-3.3352,-3.3496,-3.3447,-3.3458,-3.3483,-3.3498,-3.351,-3.3505,-3.3303,0,0,0,0,0,-3.3065,-3.312,-3.3148,-3.3228,-3.3246,-3.3258,-3.3288,-3.3285,-3.3319,-3.3333,-3.3352,-3.3385,-3.3434,-3.3467,-3.3514,-3.361,-3.3617,-3.3654,-3.3666,-3.3676,-3.3686,-3.3738,-3.3754,-3.3577,-3.3577,-3.3577,0,0,-3.311,-3.3137,-3.3171,-3.3239,-3.3265,-3.332,-3.3271,-3.3331,-3.3372,-3.3341,-3.3418,-3.3433,-3.347,-3.3558,-3.3598,-3.3574,-3.3736,-3.3686,-3.3693,-3.3698,-3.3747,-3.3764,-3.3779,-3.3582,-3.3581,-3.358,0,0,-3.322,-3.3246,-3.3316,-3.3344,-3.3384,-3.3392,-3.3408,-3.3443,-3.3453,-3.353,-3.3508,-3.3556,-3.3641,-3.3668,-3.3693,-3.3815,-3.3795,-3.383,-3.3893,-3.3944,-3.3958,-3.397,-3.4014,-3.403,-3.3839,-3.3839,-3.384,0,-3.3271,-3.3355,-3.3354,-3.3417,-3.3447,-3.3423,-3.3494,-3.3519,-3.3572,-3.3593,-3.3565,-3.3673,-3.3695,-3.379,-3.382,-3.3841,-3.3859,-3.3826,-3.3957,-3.3969,-3.398,-3.4022,-3.4038,-3.3844,-3.3843,-3.3843,-3.3842,0,-3.3415,-3.3474,-3.3526,-3.358,-3.3615,-3.3682,-3.3689,-3.3725,-3.3718,-3.3728,-3.3807,-3.3833,-3.3885,-3.3907,-3.39,-3.4001,-3.3985,-3.3957,-3.3907,-3.4001,-3.404,-3.4056,-3.3849,-3.3848,-3.3847,-3.3846,0,0,-3.3558,-3.3611,-3.363,-3.3654,-3.3697,-3.3742,-3.3807,-3.3859,-3.389,-3.3927,-3.3981,-3.4054,-3.4029,-3.4058,-3.4053,-3.4098,-3.4193,-3.4065,-3.4065,-3.4088,-3.4305,-3.4326,-3.4344,-3.418,-3.4183,-3.4185,-3.4302,0,-3.3672,-3.3788,-3.3788,-3.3894,-3.3948,-3.3926,-3.3983,-3.4014,-3.4026,-3.4072,-3.4083,-3.4136,-3.4098,-3.4115,-3.4159,-3.4172,-3.4236,-3.4163,-3.4229,-3.4231,-3.4221,-3.4365,-3.4387,-3.4496,-3.4317,-3.432,-3.4322,0,-3.3821,-3.3865,-3.3977,-3.4012,-3.4035,-3.4086,-3.4134,-3.4179,-3.4214,-3.4219,-3.4251,-3.424,-3.4305,-3.4253,-3.4342,-3.4293,-3.4319,-3.433,-3.4334,-3.434,-3.4282,-3.4375,-3.4531,-3.4548,-3.4345,-3.4343,-3.4342,0,-3.3914,-3.4001,-3.408,-3.4101,-3.4144,-3.4181,-3.42,-3.4232,-3.4264,-3.4305,-3.4325,-3.4373,-3.4399,-3.4436,-3.4438,-3.44,-3.4527,-3.4476,-3.4533,-3.4533,-3.4561,-3.4559,-3.4724,-3.4577,-3.4577,-3.4577,-3.4576,0,-3.4042,-3.4111,-3.4122,-3.4171,-3.4247,-3.4247,-3.4322,-3.4338,-3.4367,-3.4417,-3.44,-3.4447,-3.4446,-3.4493,-3.4495,-3.4568,-3.458,-3.4585,-3.4585,-3.4587,-3.4586,-3.4604,-3.4597,-3.4581,-3.458,-3.4579,-3.4578,0,-3.4159,-3.417,-3.4254,-3.4289,-3.4299,-3.4354,-3.4383,-3.4428,-3.4437,-3.4501,-3.4516,-3.453,-3.4585,-3.4591,-3.4654,-3.4655,-3.4744,-3.4735,-3.4732,-3.4731,-3.4788,-3.4783,-3.497,-3.4995,-3.4832,-3.4833,-3.4835,0,-3.424,-3.4294,-3.4334,-3.4368,-3.439,-3.4443,-3.4475,-3.4476,-3.4511,-3.4555,-3.4595,-3.4648,-3.4692,-3.478,-3.4795,-3.4844,-3.4836,-3.4898,-3.4843,-3.4844,-3.4837,-3.4835,-3.484,-3.4909,-3.4911,-3.4912,-3.4913,0,-3.4383,-3.4386,-3.4434,-3.4485,-3.4525,-3.4565,-3.4602,-3.4629,-3.4635,-3.4674,-3.4731,-3.4765,-3.483,-3.4883,-3.4931,-3.4949,-3.4932,-3.4931,-3.4947,-3.495,-3.4947,-3.495,-3.4762,-3.4927,-3.4925,-3.4924,-3.4924,-3.4923,-3.4485,-3.4532,-3.4568,-3.4623,-3.4651,-3.4686,-3.4731,-3.4747,-3.4795,-3.4849,-3.4846,-3.4909,-3.4942,-3.5005,-3.5027,-3.5075,-3.5054,-3.5076,-3.5082,-3.5088,-3.5094,-3.4939,-3.5083,-3.5083,-3.5082,-3.5082,-3.5082,0,-3.4627,-3.465,-3.47,-3.4754,-3.4797,-3.4779,-3.4819,-3.4855,-3.4912,-3.4945,-3.4988,-3.5053,-3.5105,-3.5125,-3.5175,-3.521,-3.5203,-3.5223,-3.522,-3.5225,-3.511,-3.5092,-3.5227,-3.5227,-3.5227,-3.5227,-3.5227,-3.5227,-3.4706,-3.4784,-3.4791,-3.4883,-3.4904,-3.4967,-3.4992,-3.5024,-3.505,-3.5125,-3.5168,-3.5181,-3.5209,-3.5261,-3.5307,-3.5312,-3.5331,-3.5354,-3.5355,-3.5247,-3.5233,-3.5219,-3.5202,-3.5358,-3.5358,-3.5466,-3.5467,-3.5468]}]]